694  
ASUS41 KPHI 181212  
RWRPHI  
 
REGIONAL WEATHER ROUNDUP  
NATIONAL WEATHER SERVICE MOUNT HOLLY NJ  
800 AM EDT THU APR 18 2019  
 
NOTE: "FAIR" INDICATES FEW OR NO CLOUDS BELOW 12,000 FEET WITH NO  
SIGNIFICANT WEATHER AND/OR S TO VISIBILITY
.  
 
* = STATION DOES NOT REPORT PRECIPITATION (E.G. RAIN, SNOW, ETC.)  
OR FOG.
 
 
NJZ015>026-181300-  
SOUTHERN NEW JERSEY  
 
CITY SKY/WX TMP DP RH WIND PRES REMARKS
 
POMONA CLOUDY 57 54 89 SE14 30.08S  
6HR MIN TEMP: 54; 6HR MAX TEMP: 57;  
 
WILDWOOD* FAIR 57 54 89 MISG 30.06S  
MILLVILLE FAIR 60 55 83 SE14 30.06S  
WRIGHTSTOWN CLOUDY 56 49 76 E9 30.07S  
MOUNT HOLLY CLOUDY 56 49 77 SE9 30.09R  
TRENTON CLOUDY 54 46 74 SE7 30.11R  
6HR MIN TEMP: 50; 6HR MAX TEMP: 54;  
 

 
NJZ001>014-181300-  
NORTHERN NEW JERSEY  
 
CITY SKY/WX TMP DP RH WIND PRES REMARKS
 
SUSSEX CLOUDY 52 40 63 SE7 30.13S  
ANDOVER* N/A 51 39 63 S8 30.11S  
MORRISTOWN CLOUDY 54 43 66 SE9G18 30.15S  
NEWARK CLOUDY 54 40 59 SE10 30.14F  
TETERBORO CLOUDY 55 37 50 SE9 30.14F  
CALDWELL CLOUDY 53 39 59 SE12G17 30.14F  
SOMERVILLE CLOUDY 53 43 68 E6 30.11S  
ALLAIRE* CLOUDY 52 45 77 E14 30.13S  
TOMS RIVER* CLOUDY 55 50 83 SE9G22 30.12R  
 

 
PAZ043-044-047-054-055-060>062-066>071-181300-  
EASTERN PENNSYLVANIA  
 
CITY SKY/WX TMP DP RH WIND PRES REMARKS
 
PHILADELPHIA CLOUDY 57 49 74 E10 30.08S  
6HR MIN TEMP: 52; 6HR MAX TEMP: 57;  
 
NORTH PHILA CLOUDY 58 47 66 SE10 30.11R  
BLUE BELL* CLOUDY 54 46 76 E7 30.10R  
DOYLESTOWN CLOUDY 54 44 69 CALM 30.09R  
QUAKERTOWN* CLOUDY 52 45 76 VRB3 30.10  
PERKASIE* CLOUDY 52 46 82 E5 30.10S  
POTTSTOWN CLOUDY 52 44 74 NE3 30.10R  
LANCASTER CLOUDY 54 48 80 E8 30.05F  
COATESVILLE CLOUDY 54 48 82 E10 30.07S  
WEST CHESTER CLOUDY 54 46 76 SE7 30.07R  
READING CLOUDY 54 46 74 VRB3 30.07R  
6HR MIN TEMP: 52; 6HR MAX TEMP: 54;  
 
ALLENTOWN CLOUDY 54 41 61 E7 30.10R  
6HR MIN TEMP: 52; 6HR MAX TEMP: 54;  
 
QN CITY/ALNTWN CLOUDY 54 43 66 E3 30.11R  
MOUNT POCONO CLOUDY 45 40 82 SE12G23 30.07F  
6HR MIN TEMP: 43; 6HR MAX TEMP: 45; 6HR PCP: TRACE;  
 
HAZLETON CLOUDY 46 41 81 SE12G23 30.05F  
LEHIGHTON CLOUDY 52 41 66 E3 30.10S  
WILKES BARRE CLOUDY 53 43 68 CALM 30.05S  
 

 
DEZALL-MDZ008-012-015-019-020-181300-  
DELAWARE AND EASTERN MARYLAND  
 
CITY SKY/WX TMP DP RH WIND PRES REMARKS
 
WILMINGTON CLOUDY 58 51 78 E9 30.06F  
6HR MIN TEMP: 53; 6HR MAX TEMP: 58;  
 
DOVER CLOUDY 56 54 94 E12 30.04F  
CHESWOLD CLOUDY 57 54 88 SE8 30.04F  
GEORGETOWN FAIR 62 56 80 SE8 30.04S  
6HR MIN TEMP: 56; 6HR MAX TEMP: 62;  
 
EASTON PTSUNNY 57 55 94 E5 30.06S  
STEVENSVILLE CLOUDY 55 55 100 CALM 30.04S  
ABERDEEN CLOUDY 55 54 94 SE7 30.06S  
PATUXENT PTSUNNY 58 58 100 SE5 30.02R  
OCEAN CITY FAIR 55 53 93 S5 30.05R  
WALLOPS ISLAND CLOUDY 59 55 87 S12 30.05R  
CAMBRIDGE SUNNY 55 55 100 CALM 30.03S  
SALISBURY FAIR 58 56 93 S5 30.04R  
 

 
PAZ001-021-NYZ056-072-MDZ011-DCZ001-181300-  
OTHER NEARBY LOCATIONS  
 
CITY SKY/WX TMP DP RH WIND PRES REMARKS
 
HARRISBURG CLOUDY 53 46 77 SE10 30.03F  
STATE COLLEGE CLOUDY 50 46 87 S9 29.98S  
WILLIAMSPORT CLOUDY 52 45 77 E10G21 30.01F  
BINGHAMTON CLOUDY 47 37 68 S17 29.99F  
NEW YORK CITY CLOUDY 54 37 52 VRB3 30.17F  
BALTIMORE CLOUDY 55 53 93 E5 30.04R FOG  
WASHINGTON DC CLOUDY 57 51 80 NE7 30.04R  
 

 
 
 
CLICK HERE TO GO TO PREVIOUS BULLETINS.

The Nexlab PA Page
The Nexlab NJ Page
The Nexlab DE Page
The Nexlab MD Page Main Text Page